| time (UTC) | temp C | wind direction | speed KPH | gust KPH | rain 1hr cm | rain 24hr cm | rain mn cm | humidity % | barometer mb |
| 20260831000040 | 18 | 9 | 6.4 | 16.1 | 0.58 | 0.58 | 0.58 | 80 | 1021.7 |
| 20260830235551 | 18 | 21 | 8.0 | 16.1 | 0.58 | 0.58 | 0.58 | 77 | 1021.8 |
| 20260830235057 | 18 | 30 | 9.7 | 17.7 | 0.58 | 0.58 | 0.58 | 80 | 1021.9 |
| 20260830234601 | 18 | 15 | 6.4 | 19.3 | 0.58 | 0.58 | 0.58 | 81 | 1021.9 |
| 20260830234054 | 17 | 355 | 11.3 | 22.5 | 0.58 | 0.58 | 0.58 | 82 | 1022.0 |
| 20260830233601 | 18 | 5 | 17.7 | 27.4 | 0.58 | 0.58 | 0.58 | 79 | 1022.2 |
| 20260830233004 | 18 | 321 | 20.9 | 41.8 | 0.43 | 0.43 | 0.43 | 76 | 1022.7 |
| 20260830232605 | 20 | 319 | 24.1 | 59.5 | 0.23 | 0.23 | 0.23 | 69 | 1022.6 |
| 20260830232005 | 25 | 311 | 38.6 | 54.7 | 0.03 | 0.03 | 0.03 | 47 | 1021.8 |
| 20260830231604 | 28 | 275 | 6.4 | 11.3 | 0.00 | 0.00 | 0.00 | 32 | 1021.8 |
| 20260830231051 | 28 | 229 | 1.6 | 9.7 | 0.00 | 0.00 | 0.00 | 31 | 1021.6 |
| 20260830230600 | 28 | 167 | 4.8 | 11.3 | 0.00 | 0.00 | 0.00 | 31 | 1021.5 |
| 20260830230051 | 29 | 133 | 3.2 | 9.7 | 0.00 | 0.00 | 0.00 | 31 | 1021.3 |
| 20260830225541 | 29 | 182 | 4.8 | 9.7 | 0.00 | 0.00 | 0.00 | 30 | 1021.4 |
| 20260830225049 | 29 | 171 | 1.6 | 14.5 | 0.00 | 0.00 | 0.00 | 30 | 1021.5 |
| 20260830224550 | 30 | 156 | 8.0 | 17.7 | 0.00 | 0.00 | 0.00 | 30 | 1021.5 |
| 20260830224050 | 30 | 148 | 4.8 | 17.7 | 0.00 | 0.00 | 0.00 | 30 | 1021.6 |
| 20260830223559 | 30 | 159 | 6.4 | 16.1 | 0.00 | 0.00 | 0.00 | 30 | 1021.6 |
| 20260830223109 | 30 | 196 | 8.0 | 16.1 | 0.00 | 0.00 | 0.00 | 30 | 1021.7 |
| 20260830222556 | 30 | 178 | 8.0 | 19.3 | 0.00 | 0.00 | 0.00 | 29 | 1021.7 |
| 20260830222106 | 30 | 157 | 9.7 | 22.5 | 0.00 | 0.00 | 0.00 | 29 | 1021.7 |
| 20260830221607 | 31 | 169 | 12.9 | 22.5 | 0.00 | 0.00 | 0.00 | 28 | 1021.8 |
| 20260830221105 | 31 | 170 | 6.4 | 22.5 | 0.00 | 0.00 | 0.00 | 28 | 1021.8 |
| 20260830220507 | 31 | 244 | 1.6 | 12.9 | 0.00 | 0.00 | 0.00 | 28 | 1021.9 |
| 20260830220004 | 31 | 287 | 6.4 | 19.3 | 0.00 | 0.00 | 0.00 | 27 | 1021.9 |
| 20260830215602 | 31 | 134 | 8.0 | 19.3 | 0.00 | 0.00 | 0.00 | 28 | 1022.0 |
| 20260830215106 | 31 | 244 | 9.7 | 24.1 | 0.00 | 0.00 | 0.00 | 28 | 1022.0 |
| 20260830214508 | 31 | 225 | 12.9 | 24.1 | 0.00 | 0.00 | 0.00 | 28 | 1022.0 |
| 20260830214101 | 31 | 186 | 12.9 | 20.9 | 0.00 | 0.00 | 0.00 | 29 | 1022.2 |
| 20260830213504 | 30 | 138 | 11.3 | 20.9 | 0.00 | 0.00 | 0.00 | 30 | 1022.4 |
| 20260830213106 | 30 | 115 | 9.7 | 20.9 | 0.00 | 0.00 | 0.00 | 30 | 1022.5 |
| 20260830212558 | 30 | 136 | 12.9 | 22.5 | 0.00 | 0.00 | 0.00 | 30 | 1022.5 |
| 20260830212041 | 31 | 175 | 11.3 | 19.3 | 0.00 | 0.00 | 0.00 | 30 | 1022.5 |
| 20260830211555 | 30 | 123 | 9.7 | 19.3 | 0.00 | 0.00 | 0.00 | 31 | 1022.6 |
| 20260830211056 | 30 | 159 | 9.7 | 14.5 | 0.00 | 0.00 | 0.00 | 31 | 1022.6 |
| 20260830210607 | 30 | 137 | 4.8 | 17.7 | 0.00 | 0.00 | 0.00 | 31 | 1022.6 |
| 20260830210104 | 30 | 112 | 6.4 | 19.3 | 0.00 | 0.00 | 0.00 | 30 | 1022.9 |
| 20260830205504 | 30 | 174 | 12.9 | 20.9 | 0.00 | 0.00 | 0.00 | 31 | 1022.9 |
| 20260830205059 | 30 | 184 | 4.8 | 17.7 | 0.00 | 0.00 | 0.00 | 32 | 1022.9 |
| 20260830204547 | 30 | 155 | 9.7 | 17.7 | 0.00 | 0.00 | 0.00 | 32 | 1023.1 |
| 20260830204056 | 30 | 169 | 11.3 | 17.7 | 0.00 | 0.00 | 0.00 | 32 | 1023.2 |
| 20260830203548 | 30 | 157 | 4.8 | 17.7 | 0.00 | 0.00 | 0.00 | 32 | 1023.4 |
| 20260830203056 | 30 | 167 | 3.2 | 24.1 | 0.00 | 0.00 | 0.00 | 33 | 1023.5 |
| 20260830202603 | 29 | 178 | 6.4 | 24.1 | 0.00 | 0.00 | 0.00 | 33 | 1023.6 |
| 20260830202007 | 28 | 136 | 3.2 | 16.1 | 0.00 | 0.00 | 0.00 | 34 | 1023.7 |
| 20260830201523 | 28 | 131 | 6.4 | 16.1 | 0.00 | 0.00 | 0.00 | 35 | 1023.8 |
| 20260830201019 | 28 | 180 | 4.8 | 16.1 | 0.00 | 0.00 | 0.00 | 35 | 1023.8 |
| 20260830200527 | 27 | 139 | 4.8 | 16.1 | 0.00 | 0.00 | 0.00 | 36 | 1023.8 |
| 20260830200036 | 27 | 157 | 6.4 | 16.1 | 0.00 | 0.00 | 0.00 | 35 | 1023.8 |
| 20260830195543 | 27 | 149 | 9.7 | 16.1 | 0.00 | 0.00 | 0.00 | 35 | 1023.8 |
| 20260830195051 | 27 | 127 | 8.0 | 16.1 | 0.00 | 0.00 | 0.00 | 36 | 1023.8 |
| 20260830194559 | 28 | 126 | 8.0 | 14.5 | 0.00 | 0.00 | 0.00 | 36 | 1023.9 |
| 20260830194002 | 28 | 150 | 6.4 | 16.1 | 0.00 | 0.00 | 0.00 | 36 | 1024.0 |
| 20260830193559 | 28 | 211 | 4.8 | 16.1 | 0.00 | 0.00 | 0.00 | 36 | 1024.0 |
| 20260830193009 | 28 | 180 | 6.4 | 14.5 | 0.00 | 0.00 | 0.00 | 35 | 1024.1 |
| 20260830192600 | 28 | 167 | 6.4 | 14.5 | 0.00 | 0.00 | 0.00 | 36 | 1024.1 |
| 20260830192053 | 27 | 31 | 3.2 | 14.5 | 0.00 | 0.00 | 0.00 | 37 | 1024.0 |
| 20260830191558 | 27 | 45 | 4.8 | 14.5 | 0.00 | 0.00 | 0.00 | 38 | 1024.1 |
| 20260830191054 | 27 | 47 | 1.6 | 12.9 | 0.00 | 0.00 | 0.00 | 39 | 1024.1 |
| 20260830190559 | 27 | 117 | 1.6 | 12.9 | 0.00 | 0.00 | 0.00 | 38 | 1024.3 |
| 20260830190050 | 27 | 126 | 3.2 | 12.9 | 0.00 | 0.00 | 0.00 | 38 | 1024.3 |
| 20260830185539 | 26 | 118 | 4.8 | 11.3 | 0.00 | 0.00 | 0.00 | 39 | 1024.5 |
| 20260830185046 | 26 | 46 | 3.2 | 11.3 | 0.00 | 0.00 | 0.00 | 41 | 1024.5 |
| 20260830184555 | 26 | 34 | 0.0 | 9.7 | 0.00 | 0.00 | 0.00 | 41 | 1024.6 |
| 20260830184104 | 26 | 90 | 3.2 | 9.7 | 0.00 | 0.00 | 0.00 | 41 | 1024.6 |
| 20260830183555 | 26 | 192 | 1.6 | 11.3 | 0.00 | 0.00 | 0.00 | 41 | 1024.6 |
| 20260830183105 | 26 | 148 | 6.4 | 11.3 | 0.00 | 0.00 | 0.00 | 42 | 1024.6 |
| 20260830182556 | 26 | 141 | 1.6 | 9.7 | 0.00 | 0.00 | 0.00 | 42 | 1024.7 |
| 20260830182104 | 25 | 101 | 3.2 | 9.7 | 0.00 | 0.00 | 0.00 | 43 | 1024.8 |
| 20260830181557 | 25 | 129 | 4.8 | 9.7 | 0.00 | 0.00 | 0.00 | 45 | 1024.8 |
| 20260830181105 | 25 | 157 | 1.6 | 14.5 | 0.00 | 0.00 | 0.00 | 45 | 1024.9 |
| 20260830180504 | 25 | 152 | 1.6 | 14.5 | 0.00 | 0.00 | 0.00 | 45 | 1024.9 |
| 20260830180107 | 25 | 182 | 3.2 | 11.3 | 0.00 | 0.00 | 0.00 | 46 | 1025.1 |
| 20260830175500 | 25 | 115 | 4.8 | 11.3 | 0.00 | 0.00 | 0.00 | 46 | 1025.1 |
| 20260830175058 | 25 | 187 | 4.8 | 11.3 | 0.00 | 0.00 | 0.00 | 46 | 1025.2 |
| 20260830174502 | 25 | 159 | 4.8 | 9.7 | 0.00 | 0.00 | 0.00 | 47 | 1025.2 |
| 20260830174059 | 25 | 166 | 0.0 | 8.0 | 0.00 | 0.00 | 0.00 | 47 | 1025.3 |
| 20260830173551 | 24 | 157 | 4.8 | 11.3 | 0.00 | 0.00 | 0.00 | 47 | 1025.3 |
| 20260830173101 | 24 | 146 | 3.2 | 11.3 | 0.00 | 0.00 | 0.00 | 47 | 1025.4 |
| 20260830172551 | 24 | 107 | 4.8 | 11.3 | 0.00 | 0.00 | 0.00 | 47 | 1025.4 |
| 20260830172044 | 24 | 140 | 3.2 | 9.7 | 0.00 | 0.00 | 0.00 | 47 | 1025.5 |
| 20260830171555 | 24 | 96 | 1.6 | 8.0 | 0.00 | 0.00 | 0.00 | 48 | 1025.5 |
| 20260830171046 | 24 | 150 | 4.8 | 8.0 | 0.00 | 0.00 | 0.00 | 49 | 1025.5 |
| 20260830170533 | 24 | 162 | 4.8 | 9.7 | 0.00 | 0.00 | 0.00 | 49 | 1025.6 |
| 20260830170042 | 23 | 143 | 3.2 | 14.5 | 0.00 | 0.00 | 0.00 | 50 | 1025.6 |
| 20260830165534 | 23 | 136 | 4.8 | 12.9 | 0.00 | 0.00 | 0.00 | 50 | 1025.7 |
| 20260830165045 | 23 | 82 | 4.8 | 9.7 | 0.00 | 0.00 | 0.00 | 50 | 1025.6 |
| 20260830164553 | 23 | 159 | 4.8 | 14.5 | 0.00 | 0.00 | 0.00 | 51 | 1025.6 |
| 20260830164058 | 23 | 180 | 8.0 | 14.5 | 0.00 | 0.00 | 0.00 | 51 | 1025.5 |
| 20260830163504 | 23 | 111 | 6.4 | 14.5 | 0.00 | 0.00 | 0.00 | 53 | 1025.5 |
| 20260830163019 | 23 | 117 | 6.4 | 14.5 | 0.00 | 0.00 | 0.00 | 53 | 1025.4 |
| 20260830162604 | 22 | 130 | 4.8 | 14.5 | 0.00 | 0.00 | 0.00 | 53 | 1025.4 |
| 20260830162007 | 22 | 128 | 4.8 | 14.5 | 0.00 | 0.00 | 0.00 | 54 | 1025.3 |
| 20260830161514 | 22 | 123 | 6.4 | 14.5 | 0.00 | 0.00 | 0.00 | 55 | 1025.3 |
| 20260830161022 | 22 | 112 | 6.4 | 16.1 | 0.00 | 0.00 | 0.00 | 55 | 1025.4 |
| 20260830160530 | 22 | 135 | 8.0 | 16.1 | 0.00 | 0.00 | 0.00 | 55 | 1025.3 |
| 20260830160039 | 21 | 68 | 6.4 | 14.5 | 0.00 | 0.00 | 0.00 | 56 | 1025.2 |
| 20260830155548 | 21 | 108 | 8.0 | 14.5 | 0.00 | 0.00 | 0.00 | 56 | 1025.3 |
| 20260830155057 | 21 | 116 | 6.4 | 17.7 | 0.00 | 0.00 | 0.00 | 57 | 1025.2 |
| 20260830154601 | 21 | 138 | 8.0 | 17.7 | 0.00 | 0.00 | 0.00 | 58 | 1025.2 |
| 20260830154004 | 21 | 114 | 8.0 | 16.1 | 0.00 | 0.00 | 0.00 | 58 | 1025.2 |
| 20260830153601 | 21 | 93 | 9.7 | 16.1 | 0.00 | 0.00 | 0.00 | 58 | 1025.2 |
| 20260830153005 | 21 | 137 | 8.0 | 17.7 | 0.00 | 0.00 | 0.00 | 59 | 1025.2 |
| 20260830152605 | 20 | 104 | 6.4 | 16.1 | 0.00 | 0.00 | 0.00 | 59 | 1025.1 |
| 20260830152054 | 20 | 132 | 9.7 | 17.7 | 0.00 | 0.00 | 0.00 | 59 | 1025.1 |
| 20260830151605 | 20 | 107 | 6.4 | 16.1 | 0.00 | 0.00 | 0.00 | 60 | 1025.1 |
| 20260830151003 | 20 | 128 | 8.0 | 16.1 | 0.00 | 0.00 | 0.00 | 60 | 1025.0 |
| 20260830150511 | 20 | 115 | 8.0 | 16.1 | 0.00 | 0.00 | 0.00 | 60 | 1025.2 |
| 20260830150105 | 20 | 144 | 6.4 | 12.9 | 0.00 | 0.00 | 0.00 | 61 | 1025.2 |
| 20260830145508 | 20 | 111 | 4.8 | 12.9 | 0.00 | 0.00 | 0.00 | 61 | 1025.1 |
| 20260830145104 | 20 | 134 | 6.4 | 16.1 | 0.00 | 0.00 | 0.00 | 61 | 1025.2 |
| 20260830144553 | 20 | 116 | 8.0 | 17.7 | 0.00 | 0.00 | 0.00 | 61 | 1025.0 |
| 20260830144105 | 20 | 85 | 9.7 | 16.1 | 0.00 | 0.00 | 0.00 | 60 | 1025.0 |
| 20260830143558 | 20 | 123 | 8.0 | 14.5 | 0.00 | 0.00 | 0.00 | 60 | 1025.1 |
| 20260830143043 | 20 | 85 | 6.4 | 16.1 | 0.00 | 0.00 | 0.00 | 60 | 1025.0 |
| 20260830142551 | 20 | 90 | 8.0 | 16.1 | 0.00 | 0.00 | 0.00 | 60 | 1024.9 |
| 20260830142045 | 20 | 124 | 11.3 | 16.1 | 0.00 | 0.00 | 0.00 | 61 | 1024.9 |
| 20260830141557 | 19 | 103 | 9.7 | 16.1 | 0.00 | 0.00 | 0.00 | 61 | 1024.8 |
| 20260830141100 | 19 | 78 | 8.0 | 16.1 | 0.00 | 0.00 | 0.00 | 62 | 1024.7 |
| 20260830140503 | 19 | 132 | 4.8 | 16.1 | 0.00 | 0.00 | 0.00 | 62 | 1024.6 |
| 20260830140023 | 18 | 117 | 6.4 | 17.7 | 0.00 | 0.00 | 0.00 | 62 | 1024.7 |
| 20260830135533 | 18 | 115 | 4.8 | 17.7 | 0.00 | 0.00 | 0.00 | 62 | 1024.6 |
| 20260830135039 | 18 | 72 | 8.0 | 17.7 | 0.00 | 0.00 | 0.00 | 63 | 1024.6 |
| 20260830134552 | 18 | 93 | 11.3 | 17.7 | 0.00 | 0.00 | 0.00 | 63 | 1024.6 |
| 20260830134055 | 18 | 82 | 8.0 | 17.7 | 0.00 | 0.00 | 0.00 | 63 | 1024.7 |
| 20260830133602 | 18 | 73 | 9.7 | 17.7 | 0.00 | 0.00 | 0.00 | 63 | 1024.6 |
| 20260830133006 | 18 | 71 | 8.0 | 16.1 | 0.00 | 0.00 | 0.00 | 64 | 1024.6 |
| 20260830132513 | 18 | 86 | 8.0 | 16.1 | 0.00 | 0.00 | 0.00 | 64 | 1024.4 |
| 20260830132022 | 17 | 61 | 8.0 | 16.1 | 0.00 | 0.00 | 0.00 | 64 | 1024.4 |
| 20260830131529 | 17 | 94 | 4.8 | 17.7 | 0.00 | 0.00 | 0.00 | 65 | 1024.4 |
| 20260830131040 | 17 | 80 | 9.7 | 17.7 | 0.00 | 0.00 | 0.00 | 65 | 1024.3 |
| 20260830130544 | 17 | 81 | 9.7 | 16.1 | 0.00 | 0.00 | 0.00 | 65 | 1024.3 |
| 20260830130053 | 17 | 65 | 8.0 | 16.1 | 0.00 | 0.00 | 0.00 | 66 | 1024.2 |
| 20260830125545 | 17 | 78 | 8.0 | 16.1 | 0.00 | 0.00 | 0.00 | 66 | 1024.1 |
| 20260830125053 | 17 | 74 | 8.0 | 14.5 | 0.00 | 0.00 | 0.00 | 66 | 1024.1 |
| 20260830124550 | 17 | 66 | 6.4 | 14.5 | 0.00 | 0.00 | 0.00 | 66 | 1024.2 |
| 20260830124035 | 17 | 86 | 6.4 | 14.5 | 0.00 | 0.00 | 0.00 | 66 | 1024.2 |
| 20260830123545 | 17 | 65 | 4.8 | 16.1 | 0.00 | 0.00 | 0.00 | 66 | 1024.2 |
| 20260830123051 | 17 | 69 | 6.4 | 16.1 | 0.00 | 0.00 | 0.00 | 66 | 1024.0 |
| 20260830122600 | 17 | 85 | 8.0 | 14.5 | 0.00 | 0.00 | 0.00 | 66 | 1024.1 |
| 20260830122051 | 17 | 78 | 4.8 | 16.1 | 0.00 | 0.00 | 0.00 | 66 | 1024.1 |
| 20260830121603 | 17 | 90 | 8.0 | 16.1 | 0.00 | 0.00 | 0.00 | 66 | 1024.0 |
| 20260830121057 | 17 | 91 | 9.7 | 16.1 | 0.00 | 0.00 | 0.00 | 66 | 1023.9 |
| 20260830120600 | 17 | 98 | 8.0 | 16.1 | 0.00 | 0.00 | 0.00 | 66 | 1024.0 |
| 20260830120056 | 17 | 82 | 8.0 | 16.1 | 0.00 | 0.00 | 0.00 | 67 | 1024.0 |
| 20260830115543 | 17 | 91 | 6.4 | 14.5 | 0.00 | 0.00 | 0.00 | 67 | 1023.9 |
| 20260830115051 | 17 | 75 | 6.4 | 14.5 | 0.00 | 0.00 | 0.00 | 67 | 1023.9 |
| 20260830114611 | 17 | 90 | 6.4 | 16.1 | 0.00 | 0.00 | 0.00 | 67 | 1023.9 |
| 20260830114105 | 17 | 82 | 9.7 | 16.1 | 0.00 | 0.00 | 0.00 | 67 | 1024.0 |
| 20260830113600 | 17 | 60 | 4.8 | 11.3 | 0.00 | 0.00 | 0.00 | 66 | 1024.0 |
| 20260830113110 | 17 | 77 | 3.2 | 11.3 | 0.00 | 0.00 | 0.00 | 66 | 1024.0 |
| 20260830112557 | 17 | 96 | 3.2 | 9.7 | 0.00 | 0.00 | 0.00 | 66 | 1024.0 |
| 20260830112002 | 17 | 105 | 4.8 | 12.9 | 0.00 | 0.00 | 0.00 | 66 | 1024.1 |
| 20260830111509 | 17 | 73 | 4.8 | 14.5 | 0.00 | 0.00 | 0.00 | 66 | 1024.1 |
| 20260830111104 | 17 | 90 | 4.8 | 14.5 | 0.00 | 0.00 | 0.00 | 65 | 1024.0 |
| 20260830110507 | 17 | 75 | 8.0 | 11.3 | 0.00 | 0.00 | 0.00 | 65 | 1023.8 |
| 20260830110103 | 17 | 75 | 4.8 | 16.1 | 0.00 | 0.00 | 0.00 | 66 | 1023.9 |
| 20260830105508 | 17 | 61 | 6.4 | 14.5 | 0.00 | 0.00 | 0.00 | 66 | 1024.0 |
| 20260830105103 | 17 | 52 | 4.8 | 11.3 | 0.00 | 0.00 | 0.00 | 66 | 1023.9 |
| 20260830104557 | 17 | 91 | 3.2 | 12.9 | 0.00 | 0.00 | 0.00 | 66 | 1024.0 |
| 20260830104101 | 17 | 72 | 4.8 | 12.9 | 0.00 | 0.00 | 0.00 | 66 | 1024.0 |
| 20260830103555 | 17 | 86 | 6.4 | 12.9 | 0.00 | 0.00 | 0.00 | 66 | 1024.0 |
| 20260830103102 | 17 | 101 | 6.4 | 14.5 | 0.00 | 0.00 | 0.00 | 65 | 1024.1 |
| 20260830102555 | 18 | 119 | 6.4 | 14.5 | 0.00 | 0.00 | 0.00 | 65 | 1024.0 |
| 20260830102045 | 18 | 104 | 6.4 | 16.1 | 0.00 | 0.00 | 0.00 | 65 | 1023.9 |
| 20260830101553 | 18 | 90 | 8.0 | 16.1 | 0.00 | 0.00 | 0.00 | 65 | 1024.0 |
| 20260830101101 | 18 | 82 | 6.4 | 16.1 | 0.00 | 0.00 | 0.00 | 65 | 1024.0 |
| 20260830100503 | 17 | 68 | 6.4 | 17.7 | 0.00 | 0.00 | 0.00 | 65 | 1024.0 |
| 20260830100034 | 17 | 80 | 8.0 | 17.7 | 0.00 | 0.00 | 0.00 | 66 | 1023.9 |
| 20260830095543 | 17 | 62 | 6.4 | 12.9 | 0.00 | 0.00 | 0.00 | 66 | 1024.0 |
| 20260830095052 | 17 | 61 | 6.4 | 16.1 | 0.00 | 0.00 | 0.00 | 66 | 1024.0 |
| 20260830094543 | 17 | 42 | 6.4 | 16.1 | 0.00 | 0.00 | 0.00 | 66 | 1024.1 |
| 20260830094050 | 17 | 53 | 6.4 | 14.5 | 0.00 | 0.00 | 0.00 | 67 | 1024.1 |
| 20260830093558 | 17 | 86 | 6.4 | 12.9 | 0.00 | 0.00 | 0.00 | 68 | 1024.1 |
| 20260830093001 | 17 | 80 | 4.8 | 9.7 | 0.00 | 0.00 | 0.00 | 69 | 1024.1 |
| 20260830092600 | 17 | 64 | 4.8 | 11.3 | 0.00 | 0.00 | 0.00 | 69 | 1024.1 |
| 20260830092006 | 17 | 53 | 4.8 | 9.7 | 0.00 | 0.00 | 0.00 | 69 | 1024.1 |
| 20260830091600 | 17 | 74 | 4.8 | 8.0 | 0.00 | 0.00 | 0.00 | 69 | 1024.1 |
| 20260830091055 | 17 | 80 | 1.6 | 9.7 | 0.00 | 0.00 | 0.00 | 68 | 1024.0 |
| 20260830090601 | 17 | 90 | 4.8 | 8.0 | 0.00 | 0.00 | 0.00 | 68 | 1024.1 |
| 20260830090103 | 17 | 117 | 3.2 | 14.5 | 0.00 | 0.00 | 0.00 | 68 | 1024.0 |
| 20260830085545 | 17 | 109 | 6.4 | 14.5 | 0.00 | 0.00 | 0.00 | 68 | 1024.0 |
| 20260830085050 | 17 | 108 | 8.0 | 11.3 | 0.00 | 0.00 | 0.00 | 68 | 1024.1 |
| 20260830084546 | 17 | 84 | 3.2 | 11.3 | 0.00 | 0.00 | 0.00 | 68 | 1024.2 |
| 20260830084051 | 17 | 63 | 6.4 | 11.3 | 0.00 | 0.00 | 0.00 | 68 | 1024.2 |
| 20260830083559 | 17 | 50 | 4.8 | 12.9 | 0.00 | 0.00 | 0.00 | 69 | 1024.1 |
| 20260830083003 | 17 | 53 | 3.2 | 6.4 | 0.00 | 0.00 | 0.00 | 70 | 1024.2 |
| 20260830082557 | 17 | 65 | 3.2 | 9.7 | 0.00 | 0.00 | 0.00 | 71 | 1024.3 |
| 20260830082044 | 17 | 36 | 4.8 | 9.7 | 0.00 | 0.00 | 0.00 | 71 | 1024.1 |
| 20260830081552 | 17 | 34 | 4.8 | 9.7 | 0.00 | 0.00 | 0.00 | 72 | 1024.2 |
| 20260830081045 | 17 | 28 | 4.8 | 8.0 | 0.00 | 0.00 | 0.00 | 73 | 1024.2 |
| 20260830080553 | 17 | 46 | 4.8 | 9.7 | 0.00 | 0.00 | 0.00 | 73 | 1024.3 |
| 20260830080046 | 17 | 43 | 4.8 | 9.7 | 0.00 | 0.00 | 0.00 | 73 | 1024.3 |
| 20260830075536 | 17 | 26 | 3.2 | 4.8 | 0.00 | 0.00 | 0.00 | 74 | 1024.4 |
| 20260830075043 | 17 | 88 | 1.6 | 3.2 | 0.00 | 0.00 | 0.00 | 74 | 1024.4 |
| 20260830074553 | 17 | 88 | 3.2 | 3.2 | 0.00 | 0.00 | 0.00 | 72 | 1024.5 |
| 20260830074100 | 17 | 88 | 0.0 | 1.6 | 0.00 | 0.00 | 0.00 | 72 | 1024.6 |
| 20260830073554 | 17 | 88 | 0.0 | 3.2 | 0.00 | 0.00 | 0.00 | 71 | 1024.8 |
| 20260830073108 | 17 | 88 | 0.0 | 3.2 | 0.00 | 0.00 | 0.00 | 71 | 1024.7 |
| 20260830072550 | 17 | 88 | 0.0 | 3.2 | 0.00 | 0.00 | 0.00 | 71 | 1024.7 |
| 20260830072057 | 17 | 88 | 0.0 | 4.8 | 0.00 | 0.00 | 0.00 | 71 | 1024.7 |
| 20260830071605 | 17 | 88 | 1.6 | 4.8 | 0.00 | 0.00 | 0.00 | 71 | 1024.6 |
| 20260830071055 | 17 | 70 | 1.6 | 4.8 | 0.00 | 0.00 | 0.00 | 70 | 1024.5 |
| 20260830070602 | 17 | 92 | 1.6 | 6.4 | 0.00 | 0.00 | 0.00 | 70 | 1024.4 |
| 20260830070056 | 18 | 110 | 3.2 | 6.4 | 0.00 | 0.00 | 0.00 | 70 | 1024.4 |
| 20260830065603 | 18 | 110 | 3.2 | 6.4 | 0.00 | 0.00 | 0.00 | 70 | 1024.4 |
| 20260830065056 | 18 | 102 | 3.2 | 6.4 | 0.00 | 0.00 | 0.00 | 70 | 1024.4 |
| 20260830064546 | 18 | 94 | 1.6 | 9.7 | 0.00 | 0.00 | 0.00 | 70 | 1024.4 |
| 20260830064054 | 18 | 124 | 3.2 | 6.4 | 0.00 | 0.00 | 0.00 | 70 | 1024.4 |
| 20260830063602 | 18 | 129 | 1.6 | 6.4 | 0.00 | 0.00 | 0.00 | 70 | 1024.4 |
| 20260830063005 | 18 | 88 | 3.2 | 4.8 | 0.00 | 0.00 | 0.00 | 71 | 1024.4 |
| 20260830062600 | 18 | 111 | 1.6 | 4.8 | 0.00 | 0.00 | 0.00 | 70 | 1024.4 |
| 20260830062002 | 18 | 105 | 1.6 | 6.4 | 0.00 | 0.00 | 0.00 | 70 | 1024.4 |
| 20260830061600 | 18 | 117 | 3.2 | 11.3 | 0.00 | 0.00 | 0.00 | 70 | 1024.4 |
| 20260830061003 | 18 | 133 | 4.8 | 12.9 | 0.00 | 0.00 | 0.00 | 70 | 1024.5 |
| 20260830060511 | 18 | 153 | 8.0 | 16.1 | 0.00 | 0.00 | 0.00 | 70 | 1024.5 |
| 20260830060013 | 18 | 152 | 8.0 | 16.1 | 0.00 | 0.00 | 0.00 | 70 | 1024.5 |
| 20260830055516 | 18 | 130 | 8.0 | 16.1 | 0.00 | 0.00 | 0.00 | 70 | 1024.5 |
| 20260830055022 | 18 | 116 | 6.4 | 16.1 | 0.00 | 0.00 | 0.00 | 70 | 1024.4 |
| 20260830054531 | 18 | 122 | 8.0 | 16.1 | 0.00 | 0.00 | 0.00 | 69 | 1024.4 |
| 20260830054037 | 18 | 122 | 4.8 | 12.9 | 0.00 | 0.00 | 0.00 | 68 | 1024.5 |
| 20260830053546 | 18 | 120 | 6.4 | 12.9 | 0.00 | 0.00 | 0.00 | 68 | 1024.6 |
| 20260830053053 | 18 | 148 | 4.8 | 11.3 | 0.00 | 0.00 | 0.00 | 67 | 1024.6 |
| 20260830052601 | 18 | 124 | 1.6 | 4.8 | 0.00 | 0.00 | 0.00 | 67 | 1024.7 |
| 20260830052006 | 18 | 134 | 0.0 | 9.7 | 0.00 | 0.00 | 0.00 | 66 | 1024.8 |
| 20260830051559 | 18 | 130 | 4.8 | 9.7 | 0.00 | 0.00 | 0.00 | 67 | 1024.9 |
| 20260830051003 | 18 | 157 | 3.2 | 12.9 | 0.00 | 0.00 | 0.00 | 67 | 1024.9 |
| 20260830050600 | 18 | 187 | 4.8 | 12.9 | 0.00 | 0.00 | 0.00 | 67 | 1025.0 |
| 20260830050050 | 18 | 142 | 6.4 | 12.9 | 0.00 | 0.00 | 0.00 | 66 | 1025.1 |
| 20260830045556 | 19 | 128 | 4.8 | 8.0 | 0.00 | 0.00 | 0.00 | 65 | 1025.1 |
| 20260830045106 | 19 | 113 | 3.2 | 6.4 | 0.00 | 0.00 | 0.00 | 65 | 1025.1 |
| 20260830044507 | 19 | 130 | 3.2 | 8.0 | 0.00 | 0.00 | 0.00 | 64 | 1025.1 |
| 20260830044103 | 19 | 150 | 4.8 | 8.0 | 0.00 | 0.00 | 0.00 | 64 | 1025.2 |
| 20260830043505 | 19 | 142 | 3.2 | 11.3 | 0.00 | 0.00 | 0.00 | 64 | 1025.2 |
| 20260830043105 | 19 | 170 | 6.4 | 11.3 | 0.00 | 0.00 | 0.00 | 64 | 1025.2 |
| 20260830042556 | 19 | 147 | 3.2 | 11.3 | 0.00 | 0.00 | 0.00 | 64 | 1025.2 |
| 20260830042101 | 19 | 148 | 6.4 | 11.3 | 0.00 | 0.00 | 0.00 | 64 | 1025.1 |
| 20260830041504 | 20 | 152 | 3.2 | 8.0 | 0.00 | 0.00 | 0.00 | 63 | 1025.1 |
| 20260830041012 | 20 | 153 | 1.6 | 4.8 | 0.00 | 0.00 | 0.00 | 63 | 1025.0 |
| 20260830040502 | 20 | 160 | 1.6 | 4.8 | 0.00 | 0.00 | 0.00 | 63 | 1024.9 |
| 20260830040016 | 20 | 155 | 3.2 | 4.8 | 0.00 | 0.00 | 0.00 | 62 | 1024.9 |
| 20260830035501 | 20 | 136 | 1.6 | 3.2 | 0.00 | 0.00 | 0.00 | 62 | 1024.8 |
| 20260830035059 | 20 | 105 | 0.0 | 4.8 | 0.00 | 0.00 | 0.00 | 62 | 1024.6 |
| 20260830034603 | 20 | 117 | 0.0 | 12.9 | 0.00 | 0.00 | 0.00 | 60 | 1024.6 |
| 20260830034055 | 20 | 119 | 3.2 | 12.9 | 0.00 | 0.00 | 0.00 | 60 | 1024.6 |
| 20260830033604 | 20 | 134 | 4.8 | 12.9 | 0.00 | 0.00 | 0.00 | 60 | 1024.4 |
| 20260830033057 | 20 | 119 | 4.8 | 12.9 | 0.00 | 0.00 | 0.00 | 60 | 1024.2 |
| 20260830032605 | 20 | 111 | 6.4 | 14.5 | 0.00 | 0.00 | 0.00 | 60 | 1024.1 |
| 20260830032008 | 20 | 103 | 6.4 | 14.5 | 0.00 | 0.00 | 0.00 | 60 | 1023.9 |
| 20260830031620 | 20 | 105 | 8.0 | 14.5 | 0.00 | 0.00 | 0.00 | 60 | 1024.0 |
| 20260830031005 | 21 | 115 | 8.0 | 12.9 | 0.00 | 0.00 | 0.00 | 60 | 1023.9 |
| 20260830030605 | 21 | 73 | 6.4 | 12.9 | 0.00 | 0.00 | 0.00 | 59 | 1024.1 |
| 20260830030052 | 21 | 88 | 3.2 | 8.0 | 0.00 | 0.00 | 0.00 | 58 | 1024.5 |
| 20260830025559 | 21 | 339 | 1.6 | 3.2 | 0.00 | 0.00 | 0.00 | 58 | 1024.7 |
| 20260830025053 | 21 | 209 | 0.0 | 12.9 | 0.00 | 0.00 | 0.00 | 58 | 1024.8 |
| 20260830024539 | 21 | 191 | 3.2 | 14.5 | 0.00 | 0.00 | 0.00 | 58 | 1025.0 |
| 20260830024047 | 21 | 198 | 8.0 | 14.5 | 0.00 | 0.00 | 0.00 | 58 | 1025.1 |
| 20260830023556 | 21 | 206 | 6.4 | 17.7 | 0.00 | 0.00 | 0.00 | 61 | 1025.2 |
| 20260830023111 | 21 | 171 | 12.9 | 20.9 | 0.00 | 0.00 | 0.00 | 61 | 1025.0 |
| 20260830022555 | 21 | 173 | 12.9 | 19.3 | 0.00 | 0.00 | 0.00 | 61 | 1025.0 |
| 20260830022102 | 21 | 190 | 9.7 | 17.7 | 0.00 | 0.00 | 0.00 | 61 | 1024.9 |
| 20260830021506 | 22 | 179 | 14.5 | 35.4 | 0.00 | 0.00 | 0.00 | 60 | 1024.8 |
| 20260830021014 | 22 | 182 | 16.1 | 35.4 | 0.00 | 0.00 | 0.00 | 61 | 1024.9 |
| 20260830020511 | 22 | 252 | 14.5 | 24.1 | 0.00 | 0.00 | 0.00 | 50 | 1024.8 |
| 20260830010109 | 22 | 262 | 1.6 | 4.8 | 0.00 | 0.00 | 0.00 | 47 | 1023.1 |
| 20260830005506 | 21 | 17 | 0.0 | 1.6 | 0.00 | 0.00 | 0.00 | 55 | 1023.0 |
| 20260830005103 | 21 | 17 | 0.0 | 1.6 | 0.00 | 0.00 | 0.00 | 58 | 1022.9 |
| 20260830004607 | 21 | 17 | 0.0 | 3.2 | 0.00 | 0.00 | 0.00 | 59 | 1023.0 |
| 20260830004102 | 21 | 36 | 1.6 | 6.4 | 0.00 | 0.00 | 0.00 | 61 | 1022.9 |
| 20260830003555 | 21 | 112 | 3.2 | 6.4 | 0.00 | 0.00 | 0.00 | 59 | 1023.0 |
| 20260830003109 | 22 | 82 | 4.8 | 12.9 | 0.00 | 0.00 | 0.00 | 61 | 1023.1 |
| 20260830002556 | 22 | 109 | 6.4 | 14.5 | 0.00 | 0.00 | 0.00 | 62 | 1023.2 |
| 20260830002046 | 22 | 112 | 8.0 | 14.5 | 0.00 | 0.00 | 0.00 | 59 | 1023.2 |
| 20260830001553 | 23 | 136 | 6.4 | 11.3 | 0.00 | 0.00 | 0.00 | 53 | 1023.7 |
| 20260830001101 | 23 | 150 | 0.0 | 6.4 | 0.00 | 0.00 | 0.00 | 51 | 1023.8 |
| 20260830000506 | 23 | 169 | 3.2 | 8.0 | 0.00 | 0.00 | 0.00 | 52 | 1023.8 |